DELTA 1 DEB, 2518

Orbit data source: Space-Track

DELTA 1 DEB, 2518 is space debris in SSO originally from a launch on Sun, 02 Oct 1966 UTC launched from the Air Force Western Test Range (AFWTR). Debris objects in space refer to the collection of defunct objects orbiting the Earth. Examples of debris include non-operational satellites, rocket bodies, and fragments generated from explosions, collisions, or faulty payload assembly.

Loading next visibility...
Identifier
2518, 1966-087C
Orbit
SSO
Last TLE update
2 days ago
Origin
Manufacturer
Unknown
Mission
Spacecraft
Bus & Motor
Unknown
Mass
1 kg wet, 1 kg dry
Launch date (UTC)
1966-10-02 (59 years ago)
Launch vehicle
Unknown
Launch site
Air Force Western Test Range (AFWTR)
Object type
Payload
Rocket body
Debris
Shape & HBR
Cyl + 1 Cable, 3.5 m
Radar Cross Section
3.500 m², Small (<0.1 m²)

Expand to show TLE details & history

TLE from 2 days ago
0 DELTA 1 DEB
1 02518U 66087C   25184.27927384 -.00000034  00000-0  33292-4 0  9996
2 02518 100.8435 304.4164 0081502 165.4278 223.4495 12.42694783664089
Epoch: 2025-07-03T06:42Z
TLE epoch observation values (Epoch: 2025-07-03T06:42:09.259Z)
Latitude
27.73066°
Longitude
-83.42151°
Altitude
1,545.175 km
Speed
7.075 km/s
True Right ascension
19h 54m 39s
True Declination
27° 36' 12"
Sunlit
Object was in full shadow at epoch
Visualization orbit readout
Latitude
-20.08845°
Longitude
100.53042°
Altitude
1,452.906 km
Speed
7.157 km/s
Apparent Right ascension
10h 55m 02s
Apparent Declination
-54° 38' 20"
Sunlit
Object is in daylight
Visualization observer readout
Local Sidereal Time
05:30:23
Azimuth
140.042° SSE
Elevation
-27.072°
Doppler factor
1
Orbital elements
Apogee altitude
1,556.855 km
Perigee altitude
1,428.557 km
Semi-major axis
7,870.843 km
Eccentricity
0.00815
Inclination
100.8435°
RAAN
304.4164°
Arg. of periapsis
165.4278°
True anomaly
Unknown
Mean anomaly
223.4495°
Eccentric anomaly
Unknown
Mean motion
3.10822 °/min
Orbital period
115.82 mins
BSTAR
0.000033292
Loading maneuver chart data...
Loading SW <> Apogee altitude chart data...
Loading historical data...
Loading historical data...
Loading historical data...
Loading historical data...
Loading historical data...
Loading historical data...
Loading historical data...
Other satellites on launch #87 in the year 1966 (1966-10-02 UTC)

DELTA 1 DEB Visibility forecast

Observer location: undefined°, undefined°

Span
Click to sort rows by Start time (UTC) header in descending order
Start Az.
Max El. time (UTC)
Max El. Az.
Max El.
End time (UTC)
End Az.
9 mins2025-07-05 19:07:59.709Z54.069° ENE2025-07-05 19:12:59.709Z92.784° ESE15.843°2025-07-05 19:16:59.709Z123.528° SE
14 mins2025-07-05 21:00:59.709Z16.445° NNE2025-07-05 21:06:59.709Z19.516° NNE44.67°2025-07-05 21:14:59.709Z198.332° SSW
9 mins2025-07-05 22:55:59.709Z342.629° N2025-07-05 22:59:59.709Z309.755° NW19.267°2025-07-05 23:04:59.709Z268.59° W
11 mins2025-07-06 06:12:59.709Z100.636° ESE2025-07-06 06:17:59.709Z58.074° ENE24.383°2025-07-06 06:23:59.709Z8.223° NNE
15 mins2025-07-06 08:03:59.709Z171.825° S2025-07-06 08:10:59.709Z242.648° WSW43.766°2025-07-06 08:18:59.709Z339.456° N
5 mins2025-07-06 10:03:59.709Z255.948° W2025-07-06 10:05:59.709Z270.23° WNW12.587°2025-07-06 10:08:59.709Z291.766° WNW
|